GSAT-30

Last updated on Oct. 31, 2020, 5:53 a.m. UTC

1 45026U 20005A   20304.89314031 -.00000160  00000-0  00000-0 0  9990
2 45026   0.1102  91.7511 0002225  19.9142 332.5433  1.00271734  2903
UTC
Height (km)
Latitude
Longitude
Inclination
Orbital Period
UTC large
Height (km)
Speed (km/s)
/
Latitude / Longitude
Inclination (degrees)
Orbital Period (minutes)
Azimuth
Elevation
Range (km)
Doppler Factor
iOS Compass Heading
iOS Angle

Next 30 passes for location: Hong Kong

Rise time Rise Azimuth (degrees) Set time Set Azimuth (degrees) Duration Max altitude (degrees)

No matching passes for this satellites